Location: Góry Miechowskie
(50.3599°N, 20.1803°E)
Time: 07:53:18
(UTC+00:00)

Tiros 1 - Visible Passes

Search period start: 19 September 2024 00:00
Search period end: 29 September 2024 00:00
Orbit: 623 x 655 km, 48.4° (Epoch: 19 September)

Date Brightness Start Highest point End Pass type
(mag) Time Alt. Az. Time Alt. Az. Time Alt. Az.
19 Sep 8.6 18:08:10 10° W 18:12:05 28° SSW 18:15:16 14° SSE visible
20 Sep 9.3 18:32:14 10° WSW 18:35:07 16° SW 18:37:50 11° S visible
21 Sep 8.6 17:13:02 10° W 17:17:05 30° SSW 17:21:07 10° SSE visible
22 Sep 9.4 17:36:58 10° W 17:40:09 19° SW 17:43:21 10° S visible
25 Sep 9.9 17:06:36 10° WSW 17:08:05 11° SW 17:09:33 10° SSW visible
